Location: Caltech
(34.1382°N, 118.1253°W)
Time: 03:07:27
(UTC-07:00)

AO-7 - Visible Passes

Search period start: 01 September 2015 00:00
Search period end: 11 September 2015 00:00
Orbit: 1440 x 1459 km, 101.5° (Epoch: 01 September)

Date Brightness Start Highest point End Pass type
(mag) Time Alt. Az. Time Alt. Az. Time Alt. Az.
01 Sep ? 04:10:30 10° NNE 04:18:05 40° E 04:25:45 10° SSE visible
02 Sep ? 03:13:49 10° ENE 03:17:13 14° E 03:21:21 10° ESE visible
02 Sep ? 05:02:54 10° NNE 05:11:15 87° ESE 05:19:33 10° SSW visible
03 Sep ? 04:03:43 10° NE 04:11:04 36° E 04:18:33 10° SSE visible
03 Sep ? 05:56:13 10° N 06:03:59 45° WNW 06:11:38 10° SW visible
04 Sep ? 03:07:58 10° ENE 03:10:07 12° E 03:13:06 10° ESE visible
04 Sep ? 04:55:59 10° NNE 05:04:18 79° ESE 05:12:36 10° SSW visible
05 Sep ? 03:56:58 10° NE 04:04:02 32° E 04:11:18 10° SSE visible
05 Sep ? 05:49:11 10° N 05:57:05 49° WNW 06:04:53 10° SW visible
06 Sep ? 04:49:03 10° NNE 04:57:21 72° ESE 05:05:37 10° S visible
07 Sep ? 03:50:15 10° NE 03:57:01 29° E 04:04:00 10° SSE visible
07 Sep ? 05:42:09 10° N 05:50:11 55° WNW 05:58:07 10° SW visible
08 Sep ? 04:42:09 10° NNE 04:50:23 65° ESE 04:58:36 10° S visible
09 Sep ? 03:43:35 10° NE 03:49:58 25° E 03:56:39 10° SSE visible
09 Sep ? 05:35:09 10° N 05:43:17 60° WNW 05:51:20 10° SW visible
10 Sep ? 04:35:16 10° NNE 04:43:25 59° ESE 04:51:34 10° S visible
